Regional Weather Roundup
Issued by NWS

Home | Current Version | Previous Version | Graphics & Text | Print | Product List | Glossary On
Versions: 1 2 3 4 5 6 7 8 9 10 11 12 13 14 15 16 17 18 19 20 21 22 23 24 25 26 27 28 29 30 31 32 33 34 35 36 37 38 39 40 41 42 43 44 45 46 47 48 49 50
000
ASUS43 KLSX 221810
RWRMO

WEATHER SUMMARY FOR MISSOURI
NATIONAL WEATHER SERVICE SPRINGFIELD MO
100 PM CDT SUN APR 22 2018

NOTE: "FAIR" INDICATES FEW OR NO CLOUDS BELOW 12,000 FEET WITH NO
       SIGNIFICANT WEATHER AND/OR OBSTRUCTIONS TO VISIBILITY.
       CURRENT SKY AND/OR WEATHER CONDITIONS ARE NOT AVAILABLE FOR
       CHILLICOTHE AND FARMINGTON.

MOZ001>031-035>038-043-044-053-054-221900-
...NORTHERN AND WESTERN MISSOURI...

CITY           SKY/WX    TMP DP  RH WIND       PRES   REMARKS
KANSAS CTY INT PTSUNNY   60  44  55 NE15      30.12F
6HR MIN TEMP:  47; 6HR MAX TEMP:  60; 6HR PCP:  0.01;

KANSAS C DTWN  PTSUNNY   58  45  62 E9G20     30.11F
6HR MIN TEMP:  49; 6HR MAX TEMP:  58; 6HR PCP:  0.01;

LEE`S SUMMIT   CLOUDY    53  44  71 NE17      30.11F
6HR MIN TEMP:  46; 6HR MAX TEMP:  53; 6HR PCP:  0.14;

ST JOSEPH      CLOUDY    57  38  48 NE8       30.15F
6HR MIN TEMP:  50; 6HR MAX TEMP:  57;

CHILLICOTHE      N/A     59  37  44 NE10G16   30.16F
6HR MIN TEMP:  51; 6HR MAX TEMP:  59;

KIRKSVILLE     CLOUDY    65  41  41 E10       30.16F
6HR MIN TEMP:  48; 6HR MAX TEMP:  65;


$$
MOZ066>068-077>081-088>096-101>105-221900-
...SOUTHWEST MISSOURI...

CITY           SKY/WX    TMP DP  RH WIND       PRES   REMARKS
SPRINGFIELD    LGT RAIN  56  54  93 NE15      29.95S
6HR MIN TEMP:  53; 6HR MAX TEMP:  57; 6HR PCP:  0.37;

JOPLIN         LGT RAIN  53  52  96 NE10G18   29.98S
6HR MIN TEMP:  49; 6HR MAX TEMP:  54; 6HR PCP:  0.13;

BRANSON        CLOUDY    54  54 100 NE5       29.96S

$$
MOZ032>034-039>042-045>050-055>058-069>072-221900-
...CENTRAL MISSOURI...

CITY           SKY/WX    TMP DP  RH WIND       PRES   REMARKS
COLUMBIA       CLOUDY    60  45  57 NE13      30.09F
6HR MIN TEMP:  50; 6HR MAX TEMP:  60; 6HR PCP:  0.01;

JEFFERSON CITY LGT RAIN  58  50  75 E9        30.07F
6HR MIN TEMP:  50; 6HR MAX TEMP:  58; 6HR PCP:  0.05;

ROLLA          CLOUDY    56  51  84 E13G23    30.05F
6HR MIN TEMP:  49; 6HR MAX TEMP:  56; 6HR PCP:  0.18;

SEDALIA        LGT RAIN  55  49  80 NE13      30.10F
6HR MIN TEMP:  48; 6HR MAX TEMP:  55; 6HR PCP:  0.21;

WHITEMAN AFB   LGT RAIN  53  46  77 NE14      30.05F
WARRENSBURG    DRIZZLE   52  45  76 N13       30.10F
OSAGE BEACH    LGT RAIN  53  52  96 NE9G17    30.05F FOG

$$
MOZ051-052-059>065-221900-
...EAST CENTRAL MISSOURI...

CITY           SKY/WX    TMP DP  RH WIND       PRES   REMARKS
ST LOUIS INTL  CLOUDY    58  41  53 E10       30.11F
6HR MIN TEMP:  51; 6HR MAX TEMP:  60; 6HR PCP: TRACE;

SPIRIT OF STL  CLOUDY    59  46  62 E12       30.09F
6HR MIN TEMP:  51; 6HR MAX TEMP:  60; 6HR PCP: TRACE;

ST CHARLES     CLOUDY    61  42  49 NE15      30.11S
6HR MIN TEMP:  53; 6HR MAX TEMP:  64;


$$
MOZ072>076-082>087-097>100-106>115-221900-
...SOUTH CENTRAL AND SOUTHEAST MISSOURI...

CITY           SKY/WX    TMP DP  RH WIND       PRES   REMARKS
CAPE GIRARDEAU LGT RAIN  54  50  86 E13       30.04F
6HR MIN TEMP:  52; 6HR MAX TEMP:  54; 6HR PCP:  0.15;

FARMINGTON     RAIN      52  50  93 MISG      30.06F
6HR MIN TEMP:  51; 6HR MAX TEMP:  53; 6HR PCP:  0.26;

POPLAR BLUFF   CLOUDY    53  52  96 NE14G25   29.97F
6HR MIN TEMP:  52; 6HR MAX TEMP:  53; 6HR PCP:  0.56;

WEST PLAINS    LGT RAIN  53  51  93 NE15      29.98F
6HR MIN TEMP:  53; 6HR MAX TEMP:  56; 6HR PCP:  0.14;


$$




USA.gov is the U.S. government's official web portal to all federal, state and local government web resources and services.